Location: Namasale
(1.5000°N, 32.6167°E)
Time: 01:22:22
(UTC+00:00)

Cosmos 2084 Rocket - Pass Details

Date: 09 April 2020
Orbit: 561 x 620 km, 62.8° (Epoch: 06 June)

Event Time Altitude Azimuth Distance (km) Brightness Sun altitude
Rises 17:13:43 0° 340° (NNW) 2,878 7.4 -20.3°
Reaches altitude 10° 17:16:00 10° 343° (NNW) 1,974 6.4 -20.8°
Maximum altitude 17:20:27 68° 66° (ENE) 663 3.4 -21.9°
Enters shadow 17:20:45 65° 94° (E) 674 3.4 -22.0°
